CEB921 RPLL-RPVI

Flight info

Callsign CEB921
Flight time 0h 49m
Altitude 27000
Route VERDE A461 SAJ W3 BEDER BEDER1N
Aircraft A21N/M-SDE3FGHIRWY/LB1

Departure

Time 2026-04-18 08:32
Airport Ninoy Aquino International Airport (RPLL)

Arrival

Time 2026-04-18 09:21
Airport Iloilo International Airport (RPVI)
Time Latitude Longitude Altitude Speed Heading
2026-04-18 08:01 14.52331 121.00832 82 ft 0 kts 44°
2026-04-18 08:18 14.52325 121.00826 81 ft 2 kts 44°
2026-04-18 08:19 14.52314 121.00815 81 ft 2 kts 44°
2026-04-18 08:19 14.52304 121.00804 81 ft 2 kts 44°
2026-04-18 08:19 14.52293 121.00794 82 ft 2 kts 44°
2026-04-18 08:19 14.52283 121.00783 82 ft 2 kts 44°
2026-04-18 08:20 14.52273 121.00771 82 ft 2 kts 74°
2026-04-18 08:20 14.52272 121.00755 82 ft 2 kts 99°
2026-04-18 08:20 14.52277 121.00741 82 ft 2 kts 127°
2026-04-18 08:20 14.52281 121.00736 82 ft 1 kts 140°
2026-04-18 08:21 14.52285 121.00732 82 ft 0 kts 136°
2026-04-18 08:24 14.52272 121.00745 82 ft 7 kts 135°
2026-04-18 08:24 14.52221 121.00797 82 ft 12 kts 135°
2026-04-18 08:24 14.52140 121.00882 82 ft 19 kts 135°
2026-04-18 08:25 14.52045 121.00979 82 ft 18 kts 135°
2026-04-18 08:25 14.51955 121.01073 82 ft 18 kts 135°
2026-04-18 08:25 14.51865 121.01166 82 ft 18 kts 134°
2026-04-18 08:25 14.51777 121.01257 82 ft 17 kts 135°
2026-04-18 08:26 14.51691 121.01347 82 ft 17 kts 135°
2026-04-18 08:26 14.51606 121.01434 82 ft 17 kts 135°
2026-04-18 08:26 14.51520 121.01520 82 ft 17 kts 136°
2026-04-18 08:26 14.51438 121.01608 82 ft 16 kts 134°
2026-04-18 08:27 14.51357 121.01691 82 ft 16 kts 135°
2026-04-18 08:27 14.51273 121.01778 82 ft 17 kts 135°
2026-04-18 08:27 14.51187 121.01868 82 ft 17 kts 134°
2026-04-18 08:27 14.51102 121.01955 81 ft 17 kts 135°
2026-04-18 08:28 14.51074 121.02050 81 ft 15 kts 63°
2026-04-18 08:28 14.51138 121.02162 82 ft 18 kts 60°
2026-04-18 08:28 14.51201 121.02276 82 ft 18 kts 60°
2026-04-18 08:28 14.51262 121.02386 82 ft 17 kts 60°
2026-04-18 08:29 14.51303 121.02460 82 ft 17 kts 61°
2026-04-18 08:29 14.51382 121.02603 81 ft 17 kts 59°
2026-04-18 08:29 14.51443 121.02711 82 ft 17 kts 60°
2026-04-18 08:29 14.51499 121.02813 82 ft 9 kts 71°
2026-04-18 08:30 14.51453 121.02861 82 ft 11 kts 151°
2026-04-18 08:30 14.51384 121.02877 82 ft 10 kts 211°
2026-04-18 08:30 14.51361 121.02850 82 ft 0 kts 240°
2026-04-18 08:30 14.51359 121.02846 82 ft 1 kts 240°
2026-04-18 08:31 14.51256 121.02660 82 ft 65 kts 240°
2026-04-18 08:31 14.50914 121.02045 82 ft 128 kts 240°
2026-04-18 08:31 14.50380 121.01090 110 ft 175 kts 239°
2026-04-18 08:31 14.49758 120.99986 550 ft 185 kts 240°
2026-04-18 08:32 14.49109 120.98813 1190 ft 190 kts 240°
2026-04-18 08:32 14.48467 120.97643 1903 ft 188 kts 241°
2026-04-18 08:32 14.47832 120.96458 2322 ft 193 kts 239°
2026-04-18 08:32 14.47127 120.95216 2593 ft 208 kts 238°
2026-04-18 08:33 14.46366 120.93876 2872 ft 224 kts 238°
2026-04-18 08:33 14.45544 120.92423 3105 ft 245 kts 239°
2026-04-18 08:33 14.44667 120.90859 3444 ft 258 kts 239°
2026-04-18 08:33 14.43631 120.89330 3938 ft 263 kts 221°
2026-04-18 08:34 14.42055 120.88436 4499 ft 263 kts 193°
2026-04-18 08:34 14.40215 120.88371 5065 ft 265 kts 170°
2026-04-18 08:34 14.38393 120.88689 5657 ft 269 kts 168°
2026-04-18 08:34 14.36551 120.89015 6245 ft 273 kts 169°
2026-04-18 08:35 14.34659 120.89344 6794 ft 279 kts 169°
2026-04-18 08:35 14.32710 120.89677 7303 ft 287 kts 169°
2026-04-18 08:35 14.30705 120.90013 7932 ft 291 kts 169°
2026-04-18 08:35 14.28694 120.90347 8532 ft 294 kts 169°
2026-04-18 08:36 14.26666 120.90683 9135 ft 298 kts 169°
2026-04-18 08:36 14.24590 120.91026 9754 ft 301 kts 169°
2026-04-18 08:36 14.22516 120.91370 10344 ft 304 kts 168°
2026-04-18 08:36 14.20381 120.91724 10668 ft 316 kts 169°
2026-04-18 08:37 14.18158 120.92093 10912 ft 330 kts 169°
2026-04-18 08:37 14.15846 120.92474 11161 ft 344 kts 169°
2026-04-18 08:37 14.13416 120.92873 11380 ft 357 kts 169°
2026-04-18 08:37 14.10911 120.93284 11750 ft 365 kts 169°
2026-04-18 08:38 14.08402 120.93697 12236 ft 368 kts 169°
2026-04-18 08:38 14.05854 120.94115 12683 ft 371 kts 169°
2026-04-18 08:38 14.03276 120.94540 13144 ft 375 kts 169°
2026-04-18 08:38 14.00702 120.94962 13567 ft 378 kts 169°
2026-04-18 08:39 13.98070 120.95393 14015 ft 381 kts 169°
2026-04-18 08:39 13.95455 120.95820 14439 ft 384 kts 169°
2026-04-18 08:39 13.92798 120.96254 14853 ft 387 kts 169°
2026-04-18 08:39 13.90136 120.96690 15271 ft 389 kts 169°
2026-04-18 08:40 13.87446 120.97129 15668 ft 392 kts 169°
2026-04-18 08:40 13.84727 120.97574 16089 ft 393 kts 169°
2026-04-18 08:40 13.82031 120.98015 16480 ft 395 kts 169°
2026-04-18 08:40 13.79280 120.98465 16869 ft 397 kts 169°
2026-04-18 08:41 13.76533 120.98913 17250 ft 399 kts 169°
2026-04-18 08:41 13.73796 120.99359 17618 ft 402 kts 169°
2026-04-18 08:41 13.71014 120.99814 18002 ft 403 kts 169°
2026-04-18 08:41 13.68255 121.00263 18388 ft 403 kts 169°
2026-04-18 08:42 13.65480 121.00717 18769 ft 404 kts 169°
2026-04-18 08:42 13.62697 121.01171 19129 ft 406 kts 169°
2026-04-18 08:42 13.59883 121.01630 19488 ft 407 kts 169°
2026-04-18 08:42 13.57056 121.02091 19841 ft 408 kts 169°
2026-04-18 08:43 13.54261 121.02547 20190 ft 409 kts 169°
2026-04-18 08:43 13.51456 121.02944 20530 ft 410 kts 172°
2026-04-18 08:43 13.48589 121.03176 20875 ft 412 kts 176°
2026-04-18 08:43 13.45731 121.03245 21221 ft 413 kts 178°
2026-04-18 08:44 13.42849 121.03275 21569 ft 413 kts 178°
2026-04-18 08:44 13.39941 121.03298 21908 ft 414 kts 178°
2026-04-18 08:44 13.38040 121.03313 22119 ft 414 kts 178°
2026-04-18 08:44 13.34182 121.03348 22540 ft 415 kts 178°
2026-04-18 08:45 13.31247 121.03376 22824 ft 417 kts 178°
2026-04-18 08:45 13.28363 121.03404 23083 ft 419 kts 178°
2026-04-18 08:45 13.25413 121.03433 23342 ft 421 kts 178°
2026-04-18 08:45 13.22494 121.03463 23596 ft 423 kts 178°
2026-04-18 08:46 13.19519 121.03495 23859 ft 425 kts 178°
2026-04-18 08:46 13.16562 121.03526 24112 ft 426 kts 179°
2026-04-18 08:46 13.13573 121.03557 24357 ft 428 kts 179°
2026-04-18 08:46 13.10603 121.03587 24589 ft 430 kts 179°
2026-04-18 08:47 13.07568 121.03616 24819 ft 432 kts 179°
2026-04-18 08:47 13.04560 121.03646 25039 ft 434 kts 179°
2026-04-18 08:47 13.01495 121.03676 25255 ft 436 kts 179°
2026-04-18 08:47 12.98442 121.03706 25466 ft 438 kts 179°
2026-04-18 08:48 12.95408 121.03735 25686 ft 440 kts 179°
2026-04-18 08:48 12.92302 121.03767 25915 ft 441 kts 179°
2026-04-18 08:48 12.89226 121.03797 26147 ft 443 kts 179°
2026-04-18 08:48 12.86155 121.03828 26369 ft 444 kts 179°
2026-04-18 08:49 12.83038 121.03859 26584 ft 445 kts 179°
2026-04-18 08:49 12.79925 121.03889 26779 ft 447 kts 179°
2026-04-18 08:49 12.76779 121.03920 26938 ft 449 kts 179°
2026-04-18 08:49 12.73688 121.03950 26955 ft 449 kts 179°
2026-04-18 08:50 12.70514 121.03980 26955 ft 449 kts 179°
2026-04-18 08:50 12.67397 121.04010 26948 ft 449 kts 179°
2026-04-18 08:50 12.64272 121.04041 26939 ft 449 kts 179°
2026-04-18 08:50 12.61142 121.04070 26935 ft 449 kts 179°
2026-04-18 08:51 12.57986 121.04102 26927 ft 449 kts 179°
2026-04-18 08:51 12.54875 121.04131 26918 ft 449 kts 179°
2026-04-18 08:51 12.51734 121.04161 26904 ft 449 kts 179°
2026-04-18 08:51 12.48586 121.04191 26888 ft 449 kts 179°
2026-04-18 08:52 12.45464 121.04222 26885 ft 448 kts 179°
2026-04-18 08:52 12.42341 121.04254 26885 ft 448 kts 179°
2026-04-18 08:52 12.39229 121.04404 26869 ft 448 kts 171°
2026-04-18 08:52 12.36219 121.05246 26874 ft 447 kts 157°
2026-04-18 08:53 12.33502 121.06786 26877 ft 446 kts 143°
2026-04-18 08:53 12.31163 121.08843 26887 ft 446 kts 136°
2026-04-18 08:53 12.28890 121.11031 26880 ft 446 kts 136°
2026-04-18 08:53 12.26661 121.13196 26881 ft 446 kts 136°
2026-04-18 08:54 12.24395 121.15389 26883 ft 445 kts 136°
2026-04-18 08:54 12.22138 121.17566 26882 ft 445 kts 136°
2026-04-18 08:54 12.19890 121.19726 26882 ft 444 kts 136°
2026-04-18 08:54 12.17646 121.21877 26880 ft 443 kts 136°
2026-04-18 08:55 12.15401 121.24029 26875 ft 443 kts 136°
2026-04-18 08:55 12.13131 121.26202 26872 ft 442 kts 136°
2026-04-18 08:55 12.10881 121.28353 26867 ft 443 kts 136°
2026-04-18 08:55 12.08646 121.30489 26862 ft 442 kts 136°
2026-04-18 08:56 12.06385 121.32646 26857 ft 442 kts 136°
2026-04-18 08:56 12.04160 121.34768 26722 ft 443 kts 136°
2026-04-18 08:56 12.01888 121.36933 26182 ft 441 kts 136°
2026-04-18 08:56 11.99677 121.39043 25679 ft 437 kts 136°
2026-04-18 08:57 11.95260 121.43257 24702 ft 429 kts 136°
2026-04-18 08:57 11.93110 121.45308 24225 ft 425 kts 136°
2026-04-18 08:57 11.90953 121.47366 23745 ft 421 kts 136°
2026-04-18 08:58 11.88815 121.49403 23278 ft 417 kts 136°
2026-04-18 08:58 11.86706 121.51415 23020 ft 414 kts 136°
2026-04-18 08:58 11.84597 121.53425 22779 ft 413 kts 136°
2026-04-18 08:58 11.82502 121.55421 22546 ft 412 kts 136°
2026-04-18 08:59 11.80399 121.57423 22305 ft 410 kts 136°
2026-04-18 08:59 11.78320 121.59403 22076 ft 409 kts 136°
2026-04-18 08:59 11.76259 121.61364 21846 ft 408 kts 136°
2026-04-18 08:59 11.74166 121.63357 21611 ft 407 kts 136°
2026-04-18 09:00 11.72802 121.64655 21459 ft 406 kts 135°
2026-04-18 09:00 11.70042 121.67281 21148 ft 405 kts 136°
2026-04-18 09:00 11.68005 121.69218 20917 ft 404 kts 136°
2026-04-18 09:00 11.65942 121.71180 20684 ft 403 kts 135°
2026-04-18 09:01 11.63901 121.73119 20451 ft 402 kts 135°
2026-04-18 09:01 11.61847 121.75069 20216 ft 401 kts 135°
2026-04-18 09:01 11.59812 121.77003 19982 ft 400 kts 135°
2026-04-18 09:01 11.57782 121.78931 19747 ft 398 kts 135°
2026-04-18 09:02 11.55735 121.80877 19512 ft 397 kts 135°
2026-04-18 09:02 11.53729 121.82784 19278 ft 396 kts 135°
2026-04-18 09:02 11.51709 121.84701 19043 ft 395 kts 135°
2026-04-18 09:02 11.49701 121.86608 18812 ft 393 kts 135°
2026-04-18 09:03 11.47708 121.88498 18572 ft 392 kts 135°
2026-04-18 09:03 11.45698 121.90404 18334 ft 391 kts 135°
2026-04-18 09:03 11.43717 121.92284 18103 ft 390 kts 135°
2026-04-18 09:03 11.41729 121.94170 17867 ft 389 kts 135°
2026-04-18 09:04 11.39767 121.96031 17633 ft 388 kts 135°
2026-04-18 09:04 11.37800 121.97896 17396 ft 386 kts 135°
2026-04-18 09:04 11.35811 121.99782 17157 ft 385 kts 135°
2026-04-18 09:04 11.33856 122.01635 16928 ft 384 kts 135°
2026-04-18 09:05 11.31915 122.03476 16700 ft 383 kts 135°
2026-04-18 09:05 11.29965 122.05323 16460 ft 382 kts 135°
2026-04-18 09:05 11.28015 122.07172 16193 ft 381 kts 135°
2026-04-18 09:05 11.26072 122.09013 15821 ft 379 kts 135°
2026-04-18 09:06 11.24158 122.10824 15397 ft 376 kts 135°
2026-04-18 09:06 11.22246 122.12634 14946 ft 374 kts 135°
2026-04-18 09:06 11.20338 122.14441 14478 ft 373 kts 135°
2026-04-18 09:06 11.18456 122.16224 14015 ft 372 kts 135°
2026-04-18 09:07 11.16566 122.18014 13547 ft 370 kts 135°
2026-04-18 09:07 11.14668 122.19810 13082 ft 369 kts 135°
2026-04-18 09:07 11.12811 122.21567 12819 ft 360 kts 135°
2026-04-18 09:07 11.11008 122.23271 12689 ft 347 kts 135°
2026-04-18 09:08 11.09278 122.24905 12552 ft 335 kts 135°
2026-04-18 09:08 11.07578 122.26511 12403 ft 324 kts 135°
2026-04-18 09:08 11.05968 122.28032 12254 ft 313 kts 135°
2026-04-18 09:08 11.04362 122.29543 11881 ft 311 kts 135°
2026-04-18 09:09 11.02777 122.31033 11503 ft 310 kts 135°
2026-04-18 09:09 11.01192 122.32523 11128 ft 308 kts 135°
2026-04-18 09:09 10.99629 122.33988 10759 ft 306 kts 135°
2026-04-18 09:09 10.98068 122.35453 10389 ft 304 kts 135°
2026-04-18 09:10 10.96529 122.36897 10024 ft 302 kts 135°
2026-04-18 09:10 10.94983 122.38321 9650 ft 300 kts 140°
2026-04-18 09:10 10.93092 122.39243 9228 ft 302 kts 170°
2026-04-18 09:10 10.91017 122.39095 8869 ft 300 kts 194°
2026-04-18 09:11 10.89009 122.38495 8520 ft 298 kts 195°
2026-04-18 09:11 10.87022 122.37913 8172 ft 296 kts 194°
2026-04-18 09:11 10.85030 122.37348 7823 ft 293 kts 194°
2026-04-18 09:11 10.83084 122.36807 7477 ft 291 kts 193°
2026-04-18 09:12 10.81124 122.36269 7134 ft 289 kts 193°
2026-04-18 09:12 10.79190 122.35742 6790 ft 286 kts 193°
2026-04-18 09:12 10.77261 122.35220 6512 ft 281 kts 193°
2026-04-18 09:12 10.75404 122.34716 6223 ft 274 kts 193°
2026-04-18 09:13 10.73575 122.34221 5850 ft 271 kts 193°
2026-04-18 09:13 10.71745 122.33727 5568 ft 264 kts 193°
2026-04-18 09:13 10.69990 122.33251 5273 ft 256 kts 193°
2026-04-18 09:13 10.68306 122.32873 5089 ft 242 kts 179°
2026-04-18 09:14 10.66714 122.33248 4929 ft 233 kts 146°
2026-04-18 09:14 10.65599 122.34349 4819 ft 218 kts 120°
2026-04-18 09:14 10.65010 122.35751 4506 ft 212 kts 107°
2026-04-18 09:14 10.64536 122.37148 4209 ft 206 kts 106°
2026-04-18 09:15 10.64080 122.38490 3883 ft 199 kts 106°
2026-04-18 09:15 10.63674 122.39805 3613 ft 187 kts 97°
2026-04-18 09:15 10.63789 122.41059 3320 ft 176 kts 69°
2026-04-18 09:15 10.64459 122.42013 3199 ft 158 kts 39°
2026-04-18 09:16 10.65387 122.42596 3155 ft 156 kts 27°
2026-04-18 09:16 10.66394 122.43043 3098 ft 156 kts 22°
2026-04-18 09:16 10.67424 122.43446 3029 ft 156 kts 21°
2026-04-18 09:16 10.68442 122.43828 2952 ft 155 kts 21°
2026-04-18 09:17 10.69460 122.44205 2834 ft 155 kts 21°
2026-04-18 09:17 10.70490 122.44588 2614 ft 155 kts 20°
2026-04-18 09:17 10.71500 122.44961 2404 ft 154 kts 20°
2026-04-18 09:17 10.72520 122.45340 2189 ft 153 kts 20°
2026-04-18 09:18 10.73497 122.45702 1989 ft 149 kts 20°
2026-04-18 09:18 10.74473 122.46063 1790 ft 148 kts 20°
2026-04-18 09:18 10.75441 122.46423 1594 ft 147 kts 19°
2026-04-18 09:18 10.76415 122.46783 1395 ft 147 kts 20°
2026-04-18 09:19 10.77365 122.47136 1205 ft 146 kts 20°
2026-04-18 09:19 10.78332 122.47495 1009 ft 146 kts 20°
2026-04-18 09:19 10.79281 122.47849 794 ft 146 kts 22°
2026-04-18 09:19 10.80237 122.48216 530 ft 144 kts 20°
2026-04-18 09:20 10.81183 122.48556 391 ft 143 kts 20°
2026-04-18 09:20 10.82122 122.48902 247 ft 142 kts 20°
2026-04-18 09:20 10.83019 122.49237 176 ft 126 kts 17°
2026-04-18 09:20 10.83690 122.49480 176 ft 77 kts 20°
2026-04-18 09:21 10.84027 122.49605 175 ft 28 kts 20°
2026-04-18 09:21 10.84181 122.49662 175 ft 21 kts 19°
2026-04-18 09:21 10.84292 122.49727 175 ft 15 kts 39°
2026-04-18 09:21 10.84325 122.49711 175 ft 10 kts 194°
2026-04-18 09:22 10.84243 122.49684 175 ft 14 kts 200°
2026-04-18 09:22 10.84147 122.49648 175 ft 14 kts 200°
2026-04-18 09:22 10.84048 122.49612 175 ft 17 kts 199°
2026-04-18 09:22 10.83923 122.49567 175 ft 18 kts 200°
2026-04-18 09:23 10.83801 122.49522 176 ft 18 kts 200°
2026-04-18 09:23 10.83680 122.49477 176 ft 18 kts 200°
2026-04-18 09:23 10.83571 122.49468 176 ft 15 kts 139°
2026-04-18 09:23 10.83527 122.49565 175 ft 15 kts 110°
2026-04-18 09:24 10.83484 122.49661 175 ft 14 kts 135°
2026-04-18 09:24 10.83390 122.49660 175 ft 14 kts 201°
2026-04-18 09:24 10.83295 122.49625 175 ft 14 kts 199°
2026-04-18 09:24 10.83206 122.49592 175 ft 11 kts 200°
2026-04-18 09:25 10.83142 122.49574 175 ft 6 kts 165°
2026-04-18 09:25 10.83127 122.49611 175 ft 4 kts 101°
2026-04-18 09:25 10.83119 122.49634 175 ft 2 kts 110°
2026-04-18 09:25 10.83114 122.49647 175 ft 0 kts 110°
2026-04-18 09:26 10.83114 122.49648 175 ft 0 kts 110°